Flag for Germany Weather past 2 weeks in Stassfurt, Saxony-Anhalt, Germany

Now
36 °F

Light rain. Overcast.


Feels Like: 32 °F
Forecast: 36 / 46 °F
Wind: 5 mph from West

Location: Magdeburg

Current Time: Apr 2, 2015 at 10:04:07 AM

Latest Report: Apr 2, 2015 at 9:00 AM


Visibility: 22 mi

Pressure: 29.69 "Hg

Humidity: 88%

Dew point: 33 °F

Location of StassfurtLocation

Historic Weather in Stassfurt — Graph

°F

Stassfurt temperature yesterday

Maximum temperature yesterday: 44 °F (at 3:00 PM)
Minimum temperature yesterday: 34 °F (at 6:00 AM)
Average temperature yesterday: 38 °F

Past Weeks' High & Low Weather Summary

 TemperatureHumidityPressure
High61 °F (Mar 25, 5:00 PM)98% (Mar 31, 7:00 AM)30.40 "Hg (Mar 31, 7:00 AM)
Low27 °F (Mar 23, 5:00 AM)29% (Mar 19, 5:00 PM)29.09 "Hg (Mar 31, 9:00 AM)
Average43 °F72%29.89 "Hg
* Reported Mar 18 8:00 AM — Apr 2 9:00 AM, Stassfurt, Weather by CustomWeather, © 2015

Note: Actual official high and low records may vary slightly from our data, if they occured in-between our weather recording intervals... More about our weather records

Advertising

Stassfurt weather history for previous 24 hours

 ConditionsComfort  
Time TempWeatherWind HumidityBarometerVisibility
9:00 AM
Thu, Apr 2
36 °FLight rain. Overcast.5 mph88%29.69 "Hg22 mi
8:00 AM35 °FLight rain. Overcast.5 mph90%29.69 "Hg19 mi
7:00 AM35 °FOvercast.5 mph92%29.69 "Hg37 mi
6:00 AM35 °FLight rain. Overcast.6 mph93%29.70 "Hg12 mi
4:00 AM38 °FLight freezing rain. Overcast.6 mph86%29.74 "Hg12 mi
3:00 AM35 °FOvercast.5 mph95%29.79 "Hg22 mi
2:00 AM36 °FDrizzle. Overcast.3 mph89%29.84 "Hg17 mi
1:00 AM36 °FPassing clouds.3 mph86%29.88 "Hg22 mi
12:00 AM35 °FPassing clouds.5 mph87%29.90 "Hg17 mi
11:00 PM
Wed, Apr 1
35 °FPassing clouds.5 mph90%29.92 "Hg19 mi
10:00 PM35 °FOvercast.6 mph92%29.92 "Hg28 mi
9:00 PM37 °FOvercast.6 mph88%29.91 "Hg19 mi
8:00 PM38 °FLight rain. Overcast.6 mph83%29.89 "Hg25 mi
7:00 PM38 °FOvercast.6 mph83%29.88 "Hg31 mi
6:00 PM38 °FOvercast.8 mph79%29.87 "Hg31 mi
4:00 PM42 °FThundershowers. Overcast.9 mph64%29.86 "Hg12 mi
3:00 PM44 °FOvercast.9 mph65%29.83 "Hg19 mi
2:00 PM40 °FSprinkles. Overcast.7 mph82%29.83 "Hg7 mi
1:00 PM37 °FOvercast.7 mph87%29.81 "Hg37 mi
12:00 PM42 °FSprinkles. Partly sunny.10 mph76%29.78 "Hg25 mi
11:00 AM41 °FOvercast.9 mph78%29.78 "Hg37 mi
10:00 AM39 °FOvercast.7 mph84%29.75 "Hg28 mi
Weather by CustomWeather, © 2015

See weather overviewHow to use our weather pages